Time,TemperatureF,DewpointF,PressureIn,WindDirection,WindDirectionDegrees,WindSpeedMPH,WindSpeedGustMPH,Humidity,HourlyPrecipIn,Conditions,Clouds,dailyrainin,SoftwareType,DateUTC
2013-01-19 00:13:00,22.7,8.0,30.64,SW,218,3.0,16.0,54,0.00,,,0.00,weatherlink.com 1.10,2013-01-19 05:13:00,
2013-01-19 00:29:00,23.4,9.0,30.63,SSW,204,6.0,12.0,54,0.00,,,0.00,weatherlink.com 1.10,2013-01-19 05:29:00,
2013-01-19 00:44:00,23.6,9.0,30.63,SW,221,2.0,13.0,54,0.00,,,0.00,weatherlink.com 1.10,2013-01-19 05:44:00,
2013-01-19 00:59:00,24.1,9.0,30.62,SSE,155,2.0,11.0,53,0.00,,,0.00,weatherlink.com 1.10,2013-01-19 05:59:00,
2013-01-19 01:14:00,24.6,9.0,30.62,SE,136,11.0,18.0,52,0.00,,,0.00,weatherlink.com 1.10,2013-01-19 06:14:00,
2013-01-19 01:29:00,24.7,9.0,30.62,SW,222,6.0,15.0,52,0.00,,,0.00,weatherlink.com 1.10,2013-01-19 06:29:00,
2013-01-19 01:44:00,25.1,10.0,30.62,South,186,7.0,21.0,52,0.00,,,0.00,weatherlink.com 1.10,2013-01-19 06:44:00,
2013-01-19 01:59:00,25.3,9.0,30.62,ESE,114,5.0,20.0,51,0.00,,,0.00,weatherlink.com 1.10,2013-01-19 06:59:00,
2013-01-19 02:14:00,25.5,10.0,30.62,SW,221,4.0,16.0,52,0.00,,,0.00,weatherlink.com 1.10,2013-01-19 07:14:00,
2013-01-19 02:29:00,25.8,10.0,30.61,SW,217,2.0,11.0,51,0.00,,,0.00,weatherlink.com 1.10,2013-01-19 07:29:00,
2013-01-19 02:44:00,26.6,10.0,30.60,SW,218,3.0,14.0,50,0.00,,,0.00,weatherlink.com 1.10,2013-01-19 07:44:00,
2013-01-19 02:59:00,27.2,11.0,30.59,SW,218,2.0,22.0,50,0.00,,,0.00,weatherlink.com 1.10,2013-01-19 07:59:00,
2013-01-19 03:14:00,27.7,11.0,30.58,SE,133,12.0,13.0,50,0.00,,,0.00,weatherlink.com 1.10,2013-01-19 08:14:00,
2013-01-19 03:29:00,28.3,12.0,30.56,NNW,333,8.0,18.0,50,0.00,,,0.00,weatherlink.com 1.10,2013-01-19 08:29:00,
2013-01-19 03:44:00,29.3,13.0,30.55,NE,37,4.0,12.0,50,0.00,,,0.00,weatherlink.com 1.10,2013-01-19 08:44:00,
2013-01-19 03:59:00,30.2,13.0,30.54,West,264,5.0,23.0,50,0.00,,,0.00,weatherlink.com 1.10,2013-01-19 08:59:00,
2013-01-19 04:14:00,30.0,13.0,30.55,SSE,148,4.0,17.0,49,0.00,,,0.00,weatherlink.com 1.10,2013-01-19 09:14:00,
2013-01-19 04:29:00,30.2,13.0,30.54,WNW,294,3.0,20.0,49,0.00,,,0.00,weatherlink.com 1.10,2013-01-19 09:29:00,
2013-01-19 04:44:00,29.4,12.0,30.53,South,188,2.0,14.0,49,0.00,,,0.00,weatherlink.com 1.10,2013-01-19 09:44:00,
2013-01-19 04:59:00,29.8,13.0,30.54,SSW,210,2.0,17.0,49,0.00,,,0.00,weatherlink.com 1.10,2013-01-19 09:59:00,
2013-01-19 05:14:00,30.0,13.0,30.53,SW,215,3.0,13.0,49,0.00,,,0.00,weatherlink.com 1.10,2013-01-19 10:14:00,
2013-01-19 05:29:00,29.8,13.0,30.53,SSW,201,2.0,13.0,49,0.00,,,0.00,weatherlink.com 1.10,2013-01-19 10:29:00,
2013-01-19 05:44:00,30.6,13.0,30.52,SSW,204,13.0,24.0,48,0.00,,,0.00,weatherlink.com 1.10,2013-01-19 10:44:00,
2013-01-19 05:59:00,31.1,13.0,30.52,ENE,61,19.0,19.0,47,0.00,,,0.00,weatherlink.com 1.10,2013-01-19 10:59:00,
2013-01-19 06:14:00,31.1,13.0,30.52,SE,131,4.0,23.0,48,0.00,,,0.00,weatherlink.com 1.10,2013-01-19 11:14:00,
2013-01-19 08:00:00,31.9,14.0,30.51,WSW,249,4.0,17.0,47,0.00,,,0.00,weatherlink.com 1.10,2013-01-19 13:00:00,
2013-01-19 08:15:00,32.1,13.0,30.51,WSW,248,2.0,15.0,46,0.00,,,0.00,weatherlink.com 1.10,2013-01-19 13:15:00,
2013-01-19 08:45:00,35.2,15.0,30.49,West,277,8.0,17.0,44,0.00,,,0.00,weatherlink.com 1.10,2013-01-19 13:45:00,
2013-01-19 09:00:00,36.1,15.0,30.50,South,170,7.0,34.0,43,0.00,,,0.00,weatherlink.com 1.10,2013-01-19 14:00:00,
2013-01-19 09:15:00,37.0,16.0,30.50,South,190,6.0,15.0,42,0.00,,,0.00,weatherlink.com 1.10,2013-01-19 14:15:00,
2013-01-19 09:30:00,37.1,16.0,30.49,WSW,250,4.0,14.0,42,0.00,,,0.00,weatherlink.com 1.10,2013-01-19 14:30:00,
2013-01-19 09:45:00,37.8,16.0,30.49,SSE,153,7.0,20.0,41,0.00,,,0.00,weatherlink.com 1.10,2013-01-19 14:45:00,
2013-01-19 10:00:00,38.0,16.0,30.49,SSW,205,7.0,20.0,41,0.00,,,0.00,weatherlink.com 1.10,2013-01-19 15:00:00,
2013-01-19 10:15:00,38.6,17.0,30.48,SSW,200,11.0,18.0,41,0.00,,,0.00,weatherlink.com 1.10,2013-01-19 15:15:00,
2013-01-19 10:30:00,39.1,18.0,30.47,WSW,248,5.0,11.0,42,0.00,,,0.00,weatherlink.com 1.10,2013-01-19 15:30:00,
2013-01-19 10:45:00,39.9,18.0,30.46,SE,127,8.0,8.0,42,0.01,,,0.01,weatherlink.com 1.10,2013-01-19 15:45:00,
2013-01-19 11:00:00,39.6,18.0,30.45,NW,319,4.0,12.0,42,0.01,,,0.01,weatherlink.com 1.10,2013-01-19 16:00:00,
2013-01-19 11:15:00,39.2,18.0,30.44,East,84,6.0,19.0,43,0.01,,,0.01,weatherlink.com 1.10,2013-01-19 16:15:00,
2013-01-19 11:30:00,39.0,18.0,30.42,South,170,8.0,17.0,43,0.02,,,0.02,weatherlink.com 1.10,2013-01-19 16:30:00,
2013-01-19 11:45:00,39.4,19.0,30.41,NNE,27,3.0,15.0,44,0.01,,,0.02,weatherlink.com 1.10,2013-01-19 16:45:00,
2013-01-19 12:00:00,39.6,19.0,30.40,WNW,285,7.0,16.0,43,0.01,,,0.02,weatherlink.com 1.10,2013-01-19 17:00:00,
2013-01-19 12:15:00,39.7,19.0,30.38,SSW,197,3.0,15.0,44,0.02,,,0.03,weatherlink.com 1.10,2013-01-19 17:15:00,
2013-01-19 12:30:00,40.5,21.0,30.38,NNE,18,4.0,17.0,45,0.01,,,0.03,weatherlink.com 1.10,2013-01-19 17:30:00,
2013-01-19 12:46:00,40.9,21.0,30.37,NE,47,3.0,16.0,45,0.01,,,0.03,weatherlink.com 1.10,2013-01-19 17:46:00,
2013-01-19 13:00:00,41.5,21.0,30.36,SW,228,7.0,17.0,44,0.02,,,0.04,weatherlink.com 1.10,2013-01-19 18:00:00,
2013-01-19 13:15:00,42.0,21.0,30.36,South,170,5.0,11.0,44,0.01,,,0.04,weatherlink.com 1.10,2013-01-19 18:15:00,
2013-01-19 13:31:00,42.4,23.0,30.35,NW,326,2.0,13.0,46,0.01,,,0.04,weatherlink.com 1.10,2013-01-19 18:31:00,
2013-01-19 13:46:00,42.9,22.0,30.35,SW,217,7.0,14.0,44,0.01,,,0.04,weatherlink.com 1.10,2013-01-19 18:46:00,
2013-01-19 14:31:00,42.1,23.0,30.33,ESE,113,2.0,22.0,47,0.00,,,0.04,weatherlink.com 1.10,2013-01-19 19:31:00,
2013-01-19 15:46:00,40.9,22.0,30.32,NE,39,6.0,7.0,47,0.00,,,0.04,weatherlink.com 1.10,2013-01-19 20:46:00,
2013-01-19 16:16:00,40.1,21.0,30.31,SW,229,3.0,7.0,47,0.00,,,0.04,weatherlink.com 1.10,2013-01-19 21:16:00,
2013-01-19 17:01:00,39.8,21.0,30.30,ESE,109,2.0,11.0,47,0.00,,,0.04,weatherlink.com 1.10,2013-01-19 22:01:00,
2013-01-19 17:31:00,40.0,20.0,30.29,West,273,1.0,8.0,44,0.00,,,0.04,weatherlink.com 1.10,2013-01-19 22:31:00,
2013-01-19 17:46:00,40.3,19.0,30.28,NE,44,1.0,12.0,43,0.00,,,0.04,weatherlink.com 1.10,2013-01-19 22:46:00,
2013-01-19 18:46:00,40.3,20.0,30.27,NNW,330,1.0,20.0,44,0.00,,,0.04,weatherlink.com 1.10,2013-01-19 23:46:00,
2013-01-19 19:46:00,40.0,20.0,30.26,East,101,2.0,15.0,45,0.00,,,0.04,weatherlink.com 1.10,2013-01-20 00:46:00,
2013-01-19 20:01:00,39.5,21.0,30.25,WNW,292,1.0,11.0,47,0.00,,,0.04,weatherlink.com 1.10,2013-01-20 01:01:00,
2013-01-19 20:46:00,39.5,23.0,30.22,ENE,57,0.0,21.0,51,0.00,,,0.04,weatherlink.com 1.10,2013-01-20 01:46:00,
2013-01-19 21:01:00,39.7,22.0,30.22,NNE,30,3.0,11.0,50,0.00,,,0.04,weatherlink.com 1.10,2013-01-20 02:01:00,
2013-01-19 21:16:00,39.0,23.0,30.20,West,263,5.0,6.0,52,0.00,,,0.04,weatherlink.com 1.10,2013-01-20 02:16:00,
2013-01-19 21:31:00,39.4,22.0,30.20,WSW,240,1.0,11.0,50,0.00,,,0.04,weatherlink.com 1.10,2013-01-20 02:31:00,
2013-01-19 21:46:00,40.3,22.0,30.18,SW,219,1.0,17.0,49,0.00,,,0.04,weatherlink.com 1.10,2013-01-20 02:46:00,
2013-01-19 22:01:00,40.6,22.0,30.18,South,186,4.0,16.0,48,0.00,,,0.04,weatherlink.com 1.10,2013-01-20 03:01:00,
2013-01-19 22:16:00,40.7,23.0,30.17,SSW,196,2.0,10.0,49,0.00,,,0.04,weatherlink.com 1.10,2013-01-20 03:16:00,
2013-01-19 22:31:00,40.8,23.0,30.15,SSE,155,1.0,12.0,49,0.00,,,0.04,weatherlink.com 1.10,2013-01-20 03:31:00,
2013-01-19 22:46:00,41.3,22.0,30.15,SE,141,4.0,12.0,47,0.00,,,0.04,weatherlink.com 1.10,2013-01-20 03:46:00,
2013-01-19 23:01:00,41.7,23.0,30.14,NW,308,2.0,21.0,47,0.00,,,0.04,weatherlink.com 1.10,2013-01-20 04:01:00,
2013-01-19 23:16:00,42.1,22.0,30.13,NE,56,3.0,21.0,45,0.00,,,0.04,weatherlink.com 1.10,2013-01-20 04:16:00,
2013-01-19 23:31:00,42.4,23.0,30.12,NW,312,7.0,26.0,47,0.00,,,0.04,weatherlink.com 1.10,2013-01-20 04:31:00,
2013-01-19 23:46:00,42.4,23.0,30.11,NW,308,4.0,21.0,46,0.00,,,0.04,weatherlink.com 1.10,2013-01-20 04:46:00,